Location: Martley
(52.2333°N, 2.3667°W)
Time: 13:12:45
(UTC+00:00)

USA 238 - Pass Details

Date: 11 December 2019
Orbit: 1023 x 1189 km, 63.4° (Epoch: 16 January)

Event Time Altitude Azimuth Distance (km) Brightness Sun altitude
Rises 06:47:26 0° 205° (SSW) 3,768 6.6 -11.5°
Reaches altitude 10° 06:50:03 10° 202° (SSW) 2,831 6.0 -11.1°
Maximum altitude 06:56:33 57° 125° (SE) 1,232 4.5 -10.2°
Drops below altitude 10° 07:03:18 10° 50° (NE) 2,941 6.3 -9.3°
Sets 07:06:03 0° 46° (NE) 3,926 6.9 -8.9°
